Dewpoint
49 49 49 49 49 48 49 49 49 49 49 49 49 49 50 50 50 50 50 51 51 51 51 51 51 51 52 52 52 52 52 50 48 43 44 32 43 47 58 58 60 58 57 48 39 31 28 33 34 34 35 35 36 35 36 36 31 23 21 21 19 16 14 16 13 9 7 6 6 8 11 7 7 10 56 55 62 62 62 63 64 64 64 65 65 65 66 66
48 49 50 49 49 49 49 49 49 50 49 49 49 49 49 49 50 51 51 51 50 51 51 51 51 51 51 52 52 52 52 50 45 41 38 37 53 53 54 58 62 62 56 43 36 32 24 26 29 33 34 33 36 33 33 32 27 24 22 19 17 16 15 14 13 11 9 10 10 9 10 10 8 7 12 51 57 59 60 62 62 62 64 64 65 65 65 66
50 50 50 50 50 50 49 48 49 49 49 49 49 49 49 49 49 50 51 51 50 50 51 50 51 51 51 51 52 52 51 46 45 36 24 48 52 53 55 57 61 61 44 38 36 35 24 23 27 31 33 33 33 32 29 27 25 23 19 16 16 16 15 12 11 12 12 11 8 9 11 8 8 7 10 45 52 60 59 59 61 61 61 63 64 65 65 65
49 47 48 48 49 50 49 48 48 49 49 49 49 49 49 49 49 50 50 51 50 50 50 51 51 51 51 52 52 51 47 45 27 16 22 57 59 55 56 57 61 60 43 35 34 35 28 23 27 29 32 32 32 34 30 28 17 16 19 17 15 15 14 15 14 14 13 11 10 9 12 9 7 8 33 45 48 49 57 61 60 61 62 63 64 64 64 65
47 48 49 49 48 48 48 49 48 49 49 48 49 49 49 49 49 50 50 50 51 50 50 50 50 51 51 52 52 49 44 1 -9 25 35 62 63 60 57 59 64 54 38 32 35 31 31 27 25 27 31 31 31 28 25 27 20 13 14 15 13 13 10 11 11 12 13 17 11 10 7 8 9 8 44 43 45 45 52 60 62 63 63 63 63 64 64 64
48 47 47 49 50 48 48 49 49 48 48 48 49 49 49 49 50 50 50 50 50 50 50 50 50 50 51 52 51 48 18 -11 11 22 65 63 63 61 58 63 63 46 30 29 29 27 27 26 26 25 26 28 29 30 30 25 20 22 19 15 12 12 11 13 13 11 10 10 10 8 8 10 9 10 15 21 19 29 43 61 63 63 64 64 64 64 64 64
48 48 47 47 47 47 48 48 48 48 48 49 49 49 49 49 49 50 50 50 50 50 50 50 50 50 51 52 47 44 11 -9 15 18 61 62 62 59 61 64 58 37 29 27 26 26 27 26 25 27 28 28 29 29 29 25 19 22 19 16 16 12 11 11 11 10 9 12 9 9 11 8 8 4 10 8 8 10 23 63 63 64 64 64 64 64 63 63
49 49 48 47 47 47 48 48 49 48 49 49 49 49 49 49 49 50 50 50 50 50 50 50 50 50 51 47 43 36 34 23 11 31 63 62 58 60 60 51 39 34 29 26 25 23 25 27 24 28 27 26 26 27 27 25 23 16 14 15 15 15 11 9 10 10 9 8 9 11 8 7 7 6 9 6 7 33 64 64 64 64 64 64 64 63 64 63
47 47 48 48 48 47 47 48 49 50 48 48 49 49 49 49 49 49 49 50 50 50 50 50 49 50 51 47 41 20 13 30 28 47 60 57 56 52 46 43 37 32 29 26 26 23 25 24 30 29 25 27 27 24 22 18 16 17 17 17 14 13 11 8 7 7 6 7 10 9 7 7 7 10 6 5 14 63 64 64 64 64 64 63 63 63 63 63
48 48 48 46 47 47 47 48 48 48 48 48 49 49 48 48 49 49 49 49 49 49 49 49 49 50 48 45 35 7 0 12 36 53 55 55 49 45 39 41 37 31 29 28 25 24 24 27 27 32 31 28 25 23 18 16 16 13 14 13 12 11 10 9 6 7 6 8 9 6 6 5 8 7 3 7 51 64 63 63 64 64 64 64 64 63 63 63
48 48 49 47 47 47 47 48 48 48 48 48 48 48 48 48 48 48 49 49 49 49 49 49 50 50 46 46 28 1 -1 44 48 51 52 50 43 39 35 41 37 32 29 31 26 24 20 30 34 35 30 25 17 12 20 20 17 11 9 9 7 7 8 8 9 7 8 8 8 5 4 7 9 8 4 6 61 64 63 63 64 64 64 64 64 64 64 64
48 49 48 48 48 49 48 47 48 48 48 48 48 48 48 48 48 48 49 49 49 49 49 49 50 49 48 45 38 21 22 37 39 48 48 45 39 37 36 42 37 33 31 31 30 27 22 26 34 34 29 30 18 13 11 15 13 11 11 7 6 5 4 7 6 7 9 7 8 6 6 4 8 5 6 8 61 64 63 63 63 64 64 64 64 64 64 64
49 49 49 48 48 49 47 47 47 47 47 48 47 47 47 48 48 48 49 49 49 49 50 49 50 49 47 31 28 28 22 22 23 26 48 49 49 51 42 45 38 35 31 28 30 30 27 32 33 33 32 31 21 17 11 13 12 14 11 7 3 5 2 3 10 11 7 8 8 8 5 4 4 6 9 38 61 63 63 63 63 64 64 64 64 64 64 63
48 49 49 49 49 48 47 47 48 47 47 48 47 47 47 48 48 49 49 49 50 50 50 49 49 49 46 35 26 33 28 26 27 30 27 41 46 45 47 45 43 37 35 30 31 28 30 33 33 33 27 21 18 16 12 10 13 8 9 4 6 4 5 5 10 7 5 10 7 7 9 4 4 4 8 30 60 61 61 63 63 64 64 64 64 63 63 63
49 49 48 48 48 47 46 47 47 47 47 47 47 47 47 47 48 49 50 50 50 51 50 51 51 47 40 38 36 34 48 43 35 30 28 44 46 46 44 46 44 42 37 32 31 32 31 29 28 25 23 25 20 14 12 9 12 13 8 9 15 3 4 4 12 6 4 6 11 5 15 4 4 4 7 12 55 60 60 61 62 63 63 63 63 62 62 62
49 48 47 46 46 47 47 47 47 46 46 47 47 47 47 48 49 49 49 49 51 50 50 47 47 47 42 30 18 48 44 42 42 43 34 35 45 40 40 45 43 42 39 34 31 29 29 28 26 23 21 18 13 12 13 12 11 19 10 20 17 13 4 2 5 9 8 7 5 5 3 4 3 7 8 14 52 59 59 60 61 61 62 62 62 61 61 60
49 49 47 47 46 46 47 47 47 46 46 47 47 47 48 48 49 49 49 50 50 50 49 44 47 48 34 29 30 27 28 33 39 41 39 31 41 41 33 36 32 32 34 30 28 27 28 26 26 24 24 18 14 12 13 13 14 14 18 13 21 9 11 6 7 8 9 6 3 4 4 5 5 10 12 16 41 56 58 59 60 60 61 61 61 60 60 59
47 47 47 47 46 47 47 46 46 46 46 47 47 47 46 48 49 49 49 51 50 48 47 47 46 43 35 37 25 24 31 28 29 26 38 34 33 39 31 30 30 27 24 24 26 23 27 25 21 21 23 22 17 16 13 10 13 13 15 13 17 14 14 8 9 7 9 7 8 8 6 5 4 6 14 20 38 52 56 58 59 60 60 60 60 59 59 59
46 46 46 46 45 46 46 46 46 46 46 47 47 47 48 48 49 47 46 48 43 31 24 37 39 17 8 25 24 26 30 29 28 25 28 33 34 35 34 30 26 24 25 24 23 22 25 26 27 20 18 17 15 12 12 14 13 13 15 16 16 13 13 10 10 10 12 11 6 6 6 4 5 6 15 32 45 37 51 56 58 58 57 58 57 57 58 58
47 47 47 46 45 45 46 46 46 46 46 46 44 43 42 41 44 43 45 44 42 28 15 28 37 32 28 17 21 28 31 31 26 19 21 32 29 29 28 26 26 24 24 25 28 27 25 22 19 19 21 22 24 15 13 11 13 12 13 12 14 11 10 11 11 11 14 12 11 9 8 6 6 8 19 30 50 52 54 56 57 56 57 57 56 57 57 58
46 45 45 45 45 45 46 46 46 46 46 45 43 38 28 38 32 33 41 42 41 39 37 35 37 33 23 24 27 30 28 28 27 23 17 31 26 27 24 24 24 27 24 25 26 35 25 22 22 22 21 22 24 25 24 20 21 12 13 13 9 11 10 10 10 13 16 19 17 15 9 7 7 12 18 39 49 50 53 55 56 56 56 56 56 57 57 57
47 45 45 45 45 45 45 45 46 46 47 45 42 37 35 32 33 31 24 23 32 40 38 35 33 33 32 28 28 31 33 29 29 29 21 26 23 25 22 22 23 22 26 26 25 25 23 22 24 24 23 28 30 30 27 22 21 21 14 15 13 11 13 12 18 22 19 21 14 16 9 6 10 13 27 37 48 49 52 55 55 55 55 55 56 56 57 58
45 45 45 45 46 46 46 45 47 47 44 42 40 39 36 33 34 31 28 23 21 28 38 38 35 33 32 33 33 34 31 29 27 28 15 22 22 23 20 20 23 23 25 25 22 25 23 23 24 23 27 25 25 28 27 26 27 20 19 14 13 14 11 9 22 23 20 20 19 16 9 19 28 29 27 30 24 28 48 51 54 55 55 55 55 56 57 58
44 44 44 45 45 46 45 45 46 44 43 42 40 39 38 36 35 35 30 28 27 27 35 36 36 33 32 30 33 33 31 32 29 27 24 19 20 21 20 20 21 22 20 22 22 22 20 22 24 25 26 23 25 26 24 21 18 26 23 17 13 13 11 10 16 23 27 24 29 21 23 21 26 22 21 22 30 20 28 46 48 51 53 54 54 55 57 58
46 45 44 45 45 45 45 45 42 43 42 40 41 41 41 41 40 38 30 32 31 31 33 32 36 36 32 34 36 31 32 30 27 27 21 17 18 18 18 20 19 20 20 21 22 21 21 22 27 23 23 22 24 22 25 23 19 22 27 19 17 16 14 14 24 19 22 19 23 12 12 11 21 22 22 24 27 30 32 43 45 48 51 53 53 54 55 57
44 45 44 44 45 44 45 42 43 42 41 35 36 40 40 40 41 39 34 30 21 29 23 21 33 25 32 32 33 33 25 22 24 26 18 16 22 19 16 16 19 17 16 20 20 24 21 28 25 23 24 23 20 20 22 22 19 17 18 22 18 15 17 18 21 20 15 12 20 24 12 8 20 18 23 33 27 40 49 51 52 48 48 50 52 53 54 56
44 44 45 44 44 45 41 39 42 42 35 34 36 40 41 41 43 37 27 24 21 28 18 20 18 17 23 27 29 25 20 19 21 20 20 25 17 18 15 14 17 19 17 24 20 18 22 23 24 26 26 23 23 20 23 20 19 17 23 23 18 16 16 22 20 17 18 27 27 21 19 11 10 15 28 39 30 41 49 52 53 53 51 48 50 51 53 55
44 44 43 44 44 44 42 42 42 40 37 35 41 42 41 41 43 42 29 19 15 19 16 19 15 24 20 29 27 21 22 20 16 17 16 17 15 15 14 12 13 12 16 18 16 22 28 25 25 24 26 22 20 20 24 20 18 19 22 22 19 16 17 19 18 21 20 15 12 20 24 10 13 20 37 41 36 40 48 51 52 54 54 53 52 52 53 55
44 44 44 44 44 44 44 43 42 41 40 42 43 42 40 42 42 34 29 21 23 18 19 16 19 16 21 27 23 20 17 17 16 17 17 16 17 13 15 12 13 12 15 16 16 22 22 22 22 21 21 21 21 21 20 19 18 18 19 23 23 18 19 16 17 15 17 12 10 16 22 9 11 25 40 42 40 42 44 52 53 54 55 55 55 55 56 57
45 44 44 44 44 43 41 42 42 43 43 43 42 40 43 42 32 28 18 12 32 19 16 17 16 13 22 23 20 19 16 16 18 19 16 12 16 16 16 17 13 13 15 20 15 16 20 30 26 20 19 20 21 22 20 18 18 21 19 18 17 22 21 26 25 22 18 7 14 17 24 13 11 27 37 41 44 45 44 52 53 53 54 56 56 56 56 57
43 43 44 45 42 41 41 40 39 41 43 42 42 43 41 36 29 24 13 21 24 22 18 15 14 19 21 20 18 18 17 15 15 17 16 15 20 21 20 18 20 21 24 20 19 19 19 17 19 18 24 20 20 19 20 19 19 18 19 16 16 16 18 19 20 19 7 9 16 20 20 18 12 27 38 45 49 52 52 51 51 52 53 53 55 56 57 57
45 44 44 43 43 43 41 39 42 43 43 43 44 41 33 22 26 27 20 29 20 23 16 13 16 15 19 18 17 16 15 15 16 15 16 17 21 18 20 20 21 16 15 15 16 24 19 17 15 16 32 17 18 17 17 18 18 17 20 17 15 15 10 8 14 6 6 10 13 20 15 18 30 27 43 46 48 50 51 52 52 52 53 53 54 55 55 55
46 46 44 43 44 42 42 43 43 43 43 43 44 38 28 22 17 24 23 24 20 27 26 16 15 13 15 15 14 15 14 12 15 14 17 20 19 18 21 18 20 21 15 24 18 15 16 19 20 18 17 22 15 14 16 14 16 16 15 17 13 8 5 2 10 9 13 15 19 18 21 20 37 43 46 46 48 50 51 52 53 53 53 53 53 54 54 54
45 44 42 43 43 43 43 45 44 44 43 44 39 32 29 22 22 39 20 20 21 30 29 17 15 15 14 14 14 14 12 15 14 14 15 19 20 21 20 20 18 19 22 23 14 13 10 13 16 16 15 18 15 14 15 19 16 15 16 14 16 15 11 3 11 4 8 12 16 23 11 8 35 38 48 49 50 51 52 52 52 53 53 53 53 54 54 54
46 43 43 43 44 44 45 44 44 45 44 42 34 29 23 24 26 29 29 21 12 17 15 17 14 13 14 15 15 14 16 18 14 9 11 18 20 22 21 19 18 20 21 16 20 15 11 15 19 19 15 17 15 17 18 16 15 20 17 14 14 13 20 10 16 16 13 11 11 18 10 29 37 47 49 49 50 51 51 51 52 52 52 53 53 53 53 54
44 42 43 42 43 44 44 45 44 44 43 38 30 27 24 28 25 30 28 25 20 16 15 14 14 13 17 17 15 14 20 16 15 11 15 14 18 20 21 19 16 14 17 17 22 12 13 16 20 22 19 15 14 20 18 15 14 22 12 16 17 19 15 15 13 21 13 13 7 18 33 40 44 48 47 48 49 50 51 51 51 51 52 52 52 53 53 54
41 43 41 42 43 45 45 44 44 42 43 36 26 20 28 31 31 28 31 25 25 24 9 13 16 10 16 15 14 9 13 15 21 13 14 12 14 22 15 16 15 13 13 16 17 21 14 14 19 16 12 13 15 18 17 17 22 18 15 15 19 22 22 18 12 14 9 7 11 24 32 36 37 33 46 47 47 49 50 50 51 52 52 52 52 52 52 52
43 43 43 43 43 45 45 44 43 43 42 36 28 36 37 32 33 30 30 28 25 14 17 16 18 11 13 14 16 12 12 9 18 14 19 10 18 31 30 24 21 11 12 15 13 23 15 8 13 13 12 12 17 17 17 18 18 16 16 18 14 12 11 18 16 5 4 4 5 21 25 33 29 35 42 45 45 47 49 50 51 51 51 50 50 51 51 51
44 42 40 45 45 45 44 43 43 43 36 32 29 25 33 34 33 30 26 24 24 13 19 17 17 19 19 17 16 16 8 11 15 20 12 18 22 31 32 30 31 32 20 11 12 19 24 9 16 18 13 17 20 16 19 20 16 17 15 13 25 21 22 11 14 15 14 6 5 8 25 25 35 36 44 45 46 48 49 49 49 49 49 49 49 49 49 50
42 40 41 45 45 45 44 43 44 39 33 25 30 31 34 26 24 23 21 26 22 21 22 22 20 20 19 18 16 13 16 16 13 20 24 28 29 31 32 33 30 31 31 12 17 21 12 17 8 18 18 18 19 24 19 19 17 17 16 16 15 20 26 20 22 14 11 10 8 13 16 26 36 42 46 46 47 48 49 48 48 48 48 48 48 48 49 49
43 40 40 45 44 44 43 43 37 35 33 34 34 31 26 22 20 21 24 28 21 18 18 21 22 18 20 20 14 14 16 19 27 29 27 32 29 25 34 36 33 32 32 30 32 31 17 15 17 23 11 19 22 30 25 18 16 17 19 20 16 14 16 11 14 21 18 13 9 14 12 28 41 48 47 47 48 49 49 48 47 47 47 47 47 47 47 48
40 38 42 44 44 43 41 33 36 37 32 31 24 28 21 29 25 24 28 28 19 14 17 23 24 23 23 19 17 16 18 19 26 33 33 33 35 33 34 37 37 34 31 28 32 36 26 24 20 10 14 25 31 34 36 36 37 35 34 34 25 24 21 18 10 16 23 26 22 20 24 27 42 47 48 48 49 49 48 47 46 46 46 45 46 46 46 47
42 39 48 45 43 43 38 32 37 34 32 32 35 26 22 23 24 26 31 28 21 19 22 20 23 25 20 18 20 19 20 25 28 32 34 34 35 34 36 39 40 39 37 35 33 33 49 20 17 19 24 27 29 32 33 36 36 34 36 38 36 31 28 20 20 23 22 24 20 20 22 26 43 49 48 49 49 49 48 46 45 45 45 45 45 45 46 46
40 39 45 47 46 45 37 27 30 29 32 34 35 31 32 33 32 31 30 22 24 24 24 24 23 19 21 20 22 22 24 22 28 30 31 34 33 35 34 38 40 40 35 32 30 35 21 24 19 15 19 22 21 21 26 31 37 37 35 36 38 36 33 30 28 27 24 24 24 22 20 32 44 48 49 48 47 46 45 45 45 44 44 44 44 44 44 45
39 43 47 44 48 46 37 36 33 27 34 36 37 36 36 35 33 33 32 26 22 21 26 22 22 23 21 23 24 28 28 24 28 30 34 35 34 34 34 38 41 42 46 45 48 39 29 27 22 13 15 14 10 10 18 23 31 34 38 38 38 36 32 26 18 21 17 23 27 25 28 37 45 48 47 46 44 44 44 43 43 43 43 43 43 43 43 42
38 32 39 44 43 44 42 44 40 36 33 35 31 35 37 34 31 24 23 23 20 25 20 23 19 22 22 25 27 28 29 31 28 28 32 32 33 33 35 37 42 44 48 49 47 39 32 33 27 23 19 16 20 22 30 35 32 31 33 36 37 37 34 29 26 22 20 25 29 32 37 39 42 44 44 44 44 43 42 42 42 41 41 41 41 41 41 41
42 35 35 35 41 40 39 41 41 39 33 36 28 34 31 31 32 24 21 23 22 24 26 24 24 22 21 25 27 28 31 30 31 30 32 31 34 35 36 35 34 43 52 43 45 32 31 30 32 31 30 30 30 33 35 36 33 35 33 33 36 37 34 29 22 19 29 28 23 33 41 40 41 42 42 41 41 41 40 41 41 39 40 40 40 39 40 39
36 38 41 42 35 33 35 36 40 39 40 39 35 36 32 32 31 20 23 24 25 25 22 22 25 24 21 21 27 26 28 29 30 26 32 33 32 32 31 32 33 39 45 38 40 34 30 29 33 33 34 36 36 35 36 36 36 36 36 36 36 36 35 32 32 34 29 23 27 38 41 39 39 39 40 40 40 39 38 39 39 39 39 39 38 38 38 38
43 42 42 45 34 37 37 37 40 40 38 38 35 36 32 31 28 29 24 28 27 26 25 21 26 25 28 29 28 26 27 25 23 28 29 28 30 28 26 30 33 36 37 36 35 35 31 29 34 35 35 34 35 35 35 35 35 35 35 36 37 36 36 37 36 37 35 32 38 40 37 35 38 38 39 39 39 38 38 38 38 38 38 38 38 38 38 37
41 39 38 44 42 39 39 37 38 38 35 40 34 35 32 31 27 30 28 23 20 25 29 26 27 25 26 26 28 26 27 29 29 20 26 29 26 30 26 27 29 32 37 34 33 31 33 27 36 32 30 32 33 34 34 34 34 33 34 35 35 37 38 39 39 39 39 37 36 36 34 33 37 39 38 39 38 37 37 37 37 38 38 38 37 37 37 37
44 45 45 42 38 37 39 38 36 34 32 32 33 34 30 30 28 28 27 26 24 25 29 26 25 26 24 23 25 27 31 29 28 25 26 29 21 27 23 25 31 30 34 32 33 29 31 26 30 28 28 30 33 33 33 34 34 33 33 33 34 35 35 36 35 37 38 35 36 35 33 33 37 39 39 38 37 37 36 36 37 37 37 37 37 37 37 37
47 48 49 45 35 40 36 35 32 33 29 31 34 34 27 27 29 27 21 24 26 29 28 28 30 27 27 24 22 24 28 27 25 25 26 25 23 25 27 31 32 29 31 32 35 28 27 29 26 24 30 27 33 33 32 30 30 28 29 32 34 37 38 38 38 39 39 38 35 34 35 36 37 38 36 36 36 36 36 36 36 36 37 37 37 37 37 37